Temp
7 7 7 7 6 6 6 6 6 6 6 6 6 6 6 6 6 6 6 6 6 6 6 6 6 6 6 6 6 6 6 6 6 5 5 5 5 5 5 5 4 5 4
7 6 7 6 6 6 6 6 6 6 6 6 6 6 6 6 6 6 6 5 5 5 5 5 5 5 5 5 5 6 6 6 6 6 6 5 5 5 5 5 5 4 4
6 7 6 6 6 6 6 6 6 6 6 6 6 6 6 6 6 5 5 5 5 5 5 5 5 5 5 5 5 5 5 5 5 6 6 5 6 5 5 4 4 4 4
6 6 6 6 6 5 6 6 6 6 6 6 6 5 6 5 5 5 5 5 5 5 5 5 5 5 5 5 5 5 5 5 5 5 5 5 5 5 4 4 4 4 4
6 6 6 5 6 5 5 6 5 5 5 5 5 5 5 5 5 5 5 5 5 4 4 4 4 4 4 4 4 4 4 4 4 4 4 4 4 4 4 3 3 3 3
5 5 5 5 5 5 6 5 5 5 5 5 5 5 5 5 5 5 4 4 4 4 4 4 4 4 4 4 4 4 4 4 3 3 3 4 4 3 4 4 4 3 3
5 5 5 5 5 5 5 5 5 5 5 5 5 5 5 5 5 4 4 4 4 4 4 4 3 3 3 3 3 3 3 3 3 3 3 3 3 3 3 3 3 3 3
5 5 5 5 6 5 5 5 5 5 5 5 5 5 5 5 4 4 4 4 4 4 4 3 3 3 3 2 2 2 2 2 2 2 2 2 2 2 2 3 3 3 3
5 5 5 5 6 5 5 5 5 5 4 4 5 4 4 4 4 4 3 3 3 3 3 3 2 2 2 2 2 2 1 2 1 1 2 2 2 2 2 2 2 2 2
5 5 5 5 5 5 5 5 5 4 4 4 4 4 4 3 3 3 3 3 3 3 2 2 2 2 1 1 1 1 1 1 1 1 1 2 2 2 2 2 2 2 2
5 5 5 5 5 5 5 5 4 4 4 4 4 3 3 3 3 3 3 3 3 2 2 2 2 1 1 1 1 1 1 1 1 1 1 1 1 1 2 2 2 2 2
5 5 5 5 5 4 4 4 4 4 3 3 3 3 3 3 2 3 3 2 2 2 2 1 1 1 1 1 1 1 1 1 1 1 1 1 1 1 1 2 2 2 2
5 5 4 4 4 4 4 4 3 3 3 3 3 3 3 3 2 2 2 1 1 1 1 1 0 1 0 1 1 1 1 1 1 1 1 1 1 1 2 2 2 2 2
4 4 4 4 4 4 4 3 3 3 3 3 2 2 2 2 2 2 1 1 1 0 0 0 0 0 0 0 0 1 1 1 1 1 1 2 2 2 2 2 2 2 2
4 4 4 4 4 3 3 3 3 3 3 2 2 2 1 1 1 1 1 0 0 0 0 -0 -0 -0 -0 -0 -0 0 0 0 1 1 1 2 1 1 2 2 2 2 2
3 3 3 3 3 3 3 3 3 2 2 1 1 0 0 1 1 0 0 0 0 0 0 -0 -1 -1 -1 -1 -1 -0 -0 -0 -0 0 0 0 1 1 1 1 1 2 2
3 3 3 3 3 3 3 3 2 1 1 2 1 1 1 1 0 0 0 0 0 0 -0 -1 -1 -1 -1 -1 -1 -1 -1 -1 -1 -1 -0 -0 -0 0 0 0 1 1 1
3 3 3 3 3 3 2 2 1 0 1 1 1 1 1 0 0 0 0 0 -0 -1 -1 -2 -2 -2 -2 -2 -2 -1 -1 -1 -1 -1 -1 -1 -1 -1 -1 0 -0 -1 -0
3 3 3 3 3 3 2 1 1 1 2 1 1 0 0 -0 0 0 -0 -1 -2 -2 -2 -2 -2 -2 -2 -2 -2 -1 -1 -1 -1 -1 -1 -1 -1 -1 -1 -1 -1 -1 -1
4 3 3 3 2 2 2 0 0 -0 1 0 0 0 -0 -0 -0 -1 -1 -2 -2 -2 -2 -2 -2 -2 -2 -1 -1 -1 -1 -1 -1 -2 -2 -2 -2 -2 -2 -2 -2 -3 -2
4 3 3 2 2 1 0 1 0 0 1 1 0 -0 -1 -1 -1 -2 -2 -2 -2 -2 -2 -2 -2 -2 -2 -2 -2 -3 -3 -3 -3 -3 -3 -4 -4 -4 -4 -4 -4 -5 -5
4 3 3 3 3 2 1 1 1 0 -0 -1 -1 -1 -1 -1 -1 -2 -2 -2 -3 -3 -3 -3 -3 -3 -4 -4 -4 -4 -5 -6 -8 -9 -8 -7 -8 -8 -8 -8 -8 -7 -7
4 3 3 2 2 1 1 0 -0 -1 -1 -1 -2 -2 -2 -2 -2 -2 -3 -3 -3 -3 -4 -4 -4 -5 -5 -6 -6 -7 -7 -8 -9 -9 -12 -12 -10 -9 -10 -9 -9 -9 -9
3 3 2 1 1 1 0 -1 -1 -2 -2 -2 -2 -2 -2 -2 -3 -3 -3 -4 -4 -5 -5 -5 -6 -6 -6 -7 -8 -9 -9 -10 -11 -12 -13 -13 -14 -11 -10 -10 -10 -10 -10
3 2 1 2 1 1 0 -1 -1 -2 -2 -2 -2 -2 -3 -3 -4 -4 -4 -5 -5 -5 -6 -6 -7 -8 -8 -9 -11 -12 -12 -12 -13 -14 -14 -14 -14 -14 -15 -12 -11 -12 -12
2 2 2 1 1 0 -0 -1 -1 -2 -2 -2 -3 -3 -3 -4 -4 -5 -4 -5 -5 -6 -7 -8 -9 -10 -11 -12 -12 -13 -13 -13 -14 -14 -14 -14 -14 -13 -15 -15 -15 -16 -15
Height
3174 3177 3180 3182 3185 3188 3189 3191 3191 3191 3192 3191 3191 3192 3191 3190 3189 3188 3186 3185 3185 3184 3183 3183 3182 3181 3179 3178 3177 3175 3173 3172 3171 3171 3171 3169 3170 3169 3169 3168 3168 3167 3166
3173 3177 3180 3183 3185 3187 3189 3190 3191 3191 3191 3191 3191 3191 3190 3190 3188 3188 3186 3185 3185 3184 3183 3182 3181 3181 3179 3177 3176 3175 3174 3172 3171 3170 3170 3169 3168 3167 3167 3166 3165 3165 3165
3174 3177 3181 3183 3185 3187 3189 3190 3190 3191 3190 3191 3190 3189 3189 3188 3188 3187 3186 3185 3184 3184 3182 3182 3181 3180 3179 3178 3176 3175 3173 3172 3171 3169 3168 3168 3166 3165 3165 3164 3163 3163 3163
3174 3177 3180 3184 3185 3187 3189 3190 3190 3190 3190 3189 3188 3188 3188 3187 3187 3187 3186 3185 3185 3184 3183 3182 3181 3179 3179 3178 3176 3174 3172 3172 3171 3170 3168 3167 3165 3165 3164 3162 3162 3161 3160
3172 3178 3180 3183 3185 3187 3188 3189 3190 3189 3188 3188 3187 3188 3188 3188 3188 3187 3186 3186 3185 3183 3183 3182 3181 3179 3177 3177 3176 3173 3173 3171 3170 3169 3167 3166 3164 3163 3163 3161 3160 3160 3159
3172 3176 3180 3182 3184 3186 3187 3188 3188 3188 3188 3188 3188 3189 3189 3190 3189 3188 3187 3186 3185 3183 3182 3181 3179 3179 3176 3176 3173 3171 3171 3170 3169 3168 3166 3165 3163 3162 3160 3159 3158 3157 3157
3172 3176 3180 3182 3184 3185 3186 3187 3187 3188 3189 3189 3189 3190 3190 3190 3189 3188 3186 3185 3185 3183 3181 3180 3179 3177 3175 3174 3172 3171 3170 3168 3167 3166 3164 3162 3162 3161 3160 3158 3156 3155 3154
3173 3177 3179 3181 3183 3185 3186 3187 3187 3189 3189 3190 3190 3191 3190 3189 3189 3188 3188 3186 3184 3183 3181 3179 3176 3175 3175 3173 3171 3170 3168 3167 3166 3165 3163 3160 3159 3157 3157 3156 3155 3153 3152
3172 3176 3179 3181 3183 3185 3186 3186 3187 3189 3190 3190 3191 3191 3190 3189 3188 3188 3186 3185 3183 3183 3180 3178 3176 3174 3173 3171 3169 3168 3167 3165 3164 3163 3162 3159 3158 3156 3154 3152 3151 3151 3149
3173 3177 3179 3181 3183 3184 3185 3186 3187 3188 3190 3189 3190 3190 3189 3189 3188 3187 3184 3183 3182 3180 3179 3178 3176 3173 3172 3170 3167 3166 3164 3162 3161 3160 3158 3157 3155 3154 3152 3150 3148 3147 3146
3173 3177 3178 3180 3182 3183 3183 3185 3186 3187 3189 3189 3189 3190 3189 3188 3187 3185 3182 3182 3180 3179 3178 3177 3175 3173 3170 3167 3165 3163 3161 3159 3158 3156 3154 3153 3152 3150 3148 3147 3145 3143 3142
3175 3177 3178 3179 3180 3182 3183 3184 3186 3187 3188 3188 3188 3188 3186 3186 3185 3184 3182 3181 3179 3177 3175 3174 3172 3170 3167 3163 3161 3159 3157 3155 3153 3151 3148 3147 3146 3145 3144 3142 3141 3139 3138
3176 3176 3177 3178 3179 3180 3181 3183 3184 3185 3186 3187 3187 3186 3185 3184 3183 3183 3180 3179 3177 3174 3172 3170 3168 3165 3163 3160 3157 3154 3152 3150 3148 3146 3143 3142 3140 3139 3137 3136 3136 3135 3133
3174 3175 3176 3178 3178 3179 3180 3182 3183 3184 3184 3185 3185 3185 3184 3183 3181 3180 3178 3176 3173 3171 3168 3166 3163 3160 3158 3155 3152 3149 3146 3144 3143 3141 3137 3136 3134 3132 3131 3129 3128 3127 3127
3174 3175 3176 3178 3178 3179 3179 3181 3182 3182 3183 3183 3183 3183 3182 3180 3178 3176 3174 3172 3169 3166 3163 3161 3157 3155 3152 3149 3146 3143 3140 3137 3135 3134 3131 3127 3127 3124 3123 3121 3120 3119 3118
3174 3175 3176 3178 3178 3179 3179 3180 3181 3182 3182 3181 3180 3179 3177 3176 3174 3172 3170 3167 3164 3161 3158 3155 3151 3148 3145 3143 3139 3135 3133 3130 3127 3124 3123 3118 3116 3116 3114 3112 3111 3110 3109
3173 3174 3175 3177 3177 3178 3178 3178 3179 3179 3179 3178 3176 3174 3173 3172 3170 3168 3165 3161 3159 3156 3153 3149 3145 3141 3137 3134 3131 3127 3123 3120 3116 3114 3111 3110 3106 3103 3104 3103 3102 3100 3099
3172 3173 3174 3175 3175 3176 3174 3173 3172 3169 3169 3170 3171 3171 3170 3168 3166 3163 3160 3156 3153 3150 3146 3143 3138 3135 3129 3125 3122 3118 3115 3112 3106 3103 3099 3098 3095 3094 3090 3087 3090 3088 3087
3171 3170 3171 3174 3173 3173 3171 3168 3163 3165 3170 3167 3166 3166 3165 3162 3160 3158 3154 3151 3147 3143 3140 3136 3131 3125 3121 3116 3113 3108 3104 3101 3098 3094 3089 3086 3081 3079 3077 3073 3073 3074 3072
3168 3167 3169 3169 3168 3166 3166 3158 3159 3164 3163 3163 3162 3160 3160 3159 3156 3152 3148 3144 3140 3136 3131 3128 3123 3118 3112 3106 3103 3098 3094 3090 3088 3083 3079 3076 3071 3067 3064 3061 3058 3057 3056
3166 3166 3166 3165 3163 3156 3161 3155 3160 3161 3160 3159 3157 3157 3156 3153 3148 3145 3141 3138 3134 3129 3125 3119 3114 3108 3103 3097 3094 3090 3085 3079 3076 3071 3070 3065 3061 3057 3053 3049 3045 3041 3039
3162 3161 3160 3160 3159 3157 3158 3158 3159 3159 3157 3154 3153 3152 3149 3146 3143 3139 3135 3130 3126 3120 3114 3109 3104 3099 3094 3085 3081 3078 3072 3071 3067 3055 3054 3053 3048 3045 3043 3038 3033 3030 3027
3157 3157 3157 3156 3156 3157 3157 3156 3155 3153 3151 3150 3148 3145 3142 3138 3134 3130 3126 3122 3117 3111 3106 3099 3093 3088 3082 3078 3068 3065 3060 3057 3051 3049 3042 3038 3037 3035 3031 3027 3024 3019 3016
3155 3154 3153 3154 3154 3153 3151 3149 3148 3147 3145 3143 3140 3137 3133 3130 3127 3123 3118 3113 3107 3101 3095 3089 3082 3077 3071 3065 3060 3054 3048 3044 3039 3034 3034 3030 3025 3024 3022 3018 3014 3010 3007
3151 3151 3152 3151 3149 3148 3146 3145 3144 3142 3140 3137 3135 3131 3128 3124 3120 3114 3109 3103 3097 3090 3084 3077 3071 3065 3060 3053 3048 3043 3038 3034 3031 3026 3020 3021 3020 3014 3009 3006 3002 2998 2995
3149 3149 3148 3147 3145 3144 3143 3141 3140 3137 3135 3132 3129 3125 3120 3116 3110 3104 3098 3092 3085 3079 3073 3066 3059 3052 3049 3044 3040 3035 3030 3028 3024 3020 3015 3012 3010 3007 3003 2998 2993 2990 2986
Wind_Speed
21 21 19 19 17 14 12 9 6 4 3 3 2 1 5 10 12 5 7 8 7 7 7 8 9 9 8 8 8 8 8 7 3 3 7 9 12 12 13 12 11 11 11
23 22 20 19 16 14 12 7 4 4 3 2 0 4 9 11 4 6 8 8 8 8 9 10 10 10 10 9 8 7 6 5 4 3 4 6 9 11 13 13 12 12 12
21 19 19 18 16 14 10 5 4 3 2 1 5 7 8 3 5 7 7 7 8 8 10 10 11 11 11 10 9 8 6 6 5 4 4 6 8 9 12 14 14 14 14
13 16 18 17 16 13 8 4 4 2 3 6 6 3 4 6 5 6 7 8 9 10 10 11 11 12 12 12 12 11 9 7 6 6 6 7 9 10 11 11 14 14 15
17 21 19 16 16 11 6 5 2 2 2 2 5 8 7 5 7 9 9 10 11 12 13 14 14 14 13 13 13 13 12 11 9 7 8 7 9 10 10 10 12 14 15
24 23 19 16 14 9 7 3 1 2 6 9 8 8 8 8 8 9 10 10 11 12 13 14 15 15 14 13 12 11 11 11 11 11 10 10 11 11 13 14 13 13 14
23 20 18 15 13 10 6 3 3 8 9 9 9 10 8 8 8 9 9 10 11 12 13 15 15 15 14 14 13 12 11 10 10 10 10 12 13 14 15 15 16 16 16
22 21 18 16 13 8 5 5 8 10 10 11 11 8 7 7 7 9 10 12 14 14 16 16 16 16 16 16 15 15 14 13 11 10 11 12 12 14 16 18 18 20 20
25 20 17 15 11 7 7 9 11 11 12 11 9 6 5 5 6 7 8 10 14 16 20 20 20 17 16 16 16 16 16 16 16 16 14 15 15 15 15 17 20 22 24
22 19 17 12 8 8 10 12 13 14 14 11 8 5 3 4 4 4 7 11 14 17 19 20 19 18 17 18 18 19 19 19 19 20 18 17 16 18 19 18 18 20 22
21 18 13 10 9 11 13 14 15 16 13 9 5 3 0 2 3 5 9 12 14 16 19 19 20 20 20 20 22 23 23 23 23 24 23 20 19 19 20 21 22 22 21
16 12 10 10 13 15 16 16 16 15 11 8 6 5 4 5 6 8 11 13 15 18 19 20 21 22 24 25 27 26 24 25 25 25 26 23 22 22 21 22 22 22 24
11 12 13 15 17 17 18 19 18 15 11 7 6 7 8 9 10 11 12 14 17 19 21 23 24 25 26 27 30 28 28 28 28 28 29 27 26 25 25 25 24 24 24
12 13 15 17 19 20 21 19 16 14 10 8 7 9 11 12 13 13 15 17 19 21 24 26 27 28 29 31 31 30 32 32 32 32 35 30 32 31 31 31 31 30 29
15 16 18 18 19 19 19 19 17 14 9 6 10 13 13 14 14 16 18 20 23 26 29 30 32 32 32 33 34 34 36 38 38 36 38 39 37 37 36 35 36 36 36
15 16 18 16 16 17 18 17 15 11 7 9 15 16 15 16 16 19 22 25 28 32 35 37 35 36 36 36 38 40 40 41 43 43 42 44 42 39 39 39 39 39 39
15 13 14 15 17 14 15 18 16 10 5 6 17 15 16 17 18 23 26 29 32 35 38 37 38 41 42 43 45 45 46 47 48 48 47 45 46 46 42 42 41 42 43
15 15 16 18 19 19 20 20 23 24 10 6 12 16 17 20 24 28 31 34 35 37 38 40 43 43 46 47 48 49 48 48 50 49 50 49 50 48 49 50 45 46 46
18 18 20 19 23 21 25 28 21 16 20 11 12 15 19 23 28 31 32 33 35 38 40 42 44 47 47 49 48 48 49 49 50 51 52 52 53 53 52 55 54 50 51
20 21 21 24 27 30 31 14 5 7 6 9 12 17 21 24 27 30 31 34 36 39 41 42 44 46 48 48 49 51 52 53 52 53 54 53 55 57 56 56 56 56 56
21 22 23 26 24 25 14 9 2 3 6 8 12 16 20 25 27 29 32 34 36 39 41 42 43 46 47 50 49 51 51 53 51 52 51 50 52 53 54 56 58 58 58
23 25 24 15 9 5 5 7 4 7 8 10 14 19 24 28 28 30 32 35 38 40 43 44 45 46 47 52 52 49 48 44 31 39 48 46 47 46 45 47 49 50 50
20 17 15 6 2 3 10 15 12 10 13 16 20 25 28 30 33 34 36 37 40 41 43 45 46 47 47 45 49 47 43 38 42 40 35 35 36 33 34 37 40 43 44
12 12 3 2 12 17 16 13 12 16 20 23 27 31 33 34 36 37 38 40 42 42 43 44 46 45 46 45 43 41 41 41 37 35 27 26 28 26 28 32 37 37 41
11 10 8 11 21 16 13 15 19 21 24 27 31 34 34 36 37 38 39 41 43 44 45 47 47 47 45 43 37 34 36 33 27 25 29 25 27 28 29 39 41 42 37
7 11 16 19 15 15 17 21 23 27 27 31 34 36 37 38 38 41 43 44 46 46 48 43 41 41 33 27 29 37 36 29 26 26 34 36 34 33 26 32 31 26 30
Wind_Direction
170 170 168 157 150 144 139 135 128 127 131 122 148 269 347 352 350 41 58 53 41 27 19 13 12 12 12 12 19 25 29 30 30 254 259 269 275 276 276 273 269 260 264
172 170 167 156 152 147 145 134 119 130 140 143 253 334 343 344 29 58 43 33 26 19 14 10 8 5 4 3 9 10 3 15 14 349 301 278 272 271 266 263 263 256 255
167 163 172 160 154 149 145 129 117 123 104 347 319 327 331 25 69 45 38 33 29 25 22 13 7 4 358 354 353 354 351 342 323 314 302 284 277 267 258 257 257 255 250
165 187 174 168 155 152 145 118 117 80 327 309 316 341 96 90 65 55 53 45 36 30 25 18 9 5 357 351 346 341 336 323 310 296 280 269 273 263 263 260 253 253 255
191 189 177 169 156 154 143 133 112 323 320 69 107 113 100 83 71 61 52 42 32 28 24 18 13 9 4 359 352 345 336 329 315 300 282 274 265 265 270 277 270 263 259
182 175 171 164 159 155 154 159 156 126 122 120 118 113 105 91 74 61 53 44 36 27 18 11 8 4 3 0 359 352 346 340 334 318 301 281 271 263 262 271 266 266 266
169 168 168 163 163 165 169 180 153 142 136 131 125 117 107 93 77 64 56 44 29 20 12 6 359 354 353 352 355 356 354 355 349 334 315 299 286 276 271 270 269 267 264
169 170 167 167 167 168 179 175 154 146 140 137 131 124 107 85 68 57 45 29 19 12 6 2 358 353 350 349 351 352 351 348 346 339 329 312 301 289 281 275 273 271 269
165 168 166 169 169 180 184 165 153 147 144 142 141 131 110 76 57 39 24 14 8 3 358 355 354 351 347 344 343 342 342 342 340 335 325 313 313 309 296 282 279 278 277
163 167 166 168 184 185 171 156 154 154 153 156 156 153 105 47 34 16 2 354 354 353 350 346 343 341 338 336 333 329 327 326 333 332 319 312 307 300 301 299 289 281 279
165 165 168 181 186 172 161 163 161 159 163 170 174 193 336 317 322 335 344 341 343 341 337 333 330 327 327 327 327 327 326 324 323 323 323 313 302 303 298 294 292 291 288
159 168 184 189 176 169 164 163 164 167 175 185 208 241 265 293 308 320 331 331 330 327 325 321 321 321 320 321 323 324 321 320 318 317 314 315 309 302 300 293 289 287 286
176 199 199 183 171 169 166 168 172 176 187 203 243 264 286 304 312 316 320 320 319 318 317 313 313 313 313 315 318 319 318 319 317 314 310 311 308 303 297 294 289 285 282
181 179 176 175 172 171 171 175 178 187 200 226 266 291 297 306 311 309 308 311 312 313 312 308 307 309 312 313 314 314 315 315 314 313 311 311 308 303 298 294 291 287 284
151 164 169 171 174 177 182 187 193 202 213 266 296 295 295 301 300 302 304 304 305 308 308 306 307 309 311 311 311 312 312 311 310 309 308 306 305 302 298 293 290 287 284
162 163 175 175 179 192 200 204 209 210 238 299 304 289 291 289 294 295 297 300 303 306 306 307 310 310 309 309 309 309 308 307 307 307 306 304 303 301 296 293 290 287 284
183 185 195 202 207 207 210 216 214 193 16 300 276 269 278 286 289 291 295 300 302 302 304 308 308 307 307 307 307 308 309 309 307 307 305 304 302 302 297 292 289 286 283
213 219 229 231 227 227 229 227 224 200 337 273 267 278 282 288 290 297 300 298 298 301 304 304 304 303 302 304 306 306 305 305 304 304 303 302 300 298 297 293 289 286 282
224 237 247 260 271 269 246 238 237 307 250 263 273 283 288 294 294 294 295 297 298 300 299 299 300 303 303 303 303 303 302 302 302 302 301 301 299 297 295 292 290 285 281
235 248 259 267 272 278 280 241 349 181 225 260 283 295 296 295 296 299 298 297 298 299 301 302 301 301 303 303 304 303 303 301 300 299 298 298 296 294 293 291 288 285 282
250 264 269 272 282 285 299 36 185 276 291 302 293 295 301 307 306 303 301 301 301 301 302 303 304 305 304 301 302 299 299 298 298 294 292 290 287 287 288 286 286 285 284
259 266 276 288 298 328 317 323 307 279 290 300 299 305 310 313 306 301 301 302 305 306 306 305 305 304 305 304 301 301 301 297 304 290 297 292 289 289 288 287 285 283 282
261 267 277 257 296 323 305 302 295 294 303 306 310 313 312 312 310 308 307 307 307 308 308 308 307 306 304 302 302 304 301 299 295 299 293 296 292 291 288 285 284 283 284
246 255 239 338 318 301 306 305 306 311 315 316 318 317 315 312 309 307 308 310 311 310 308 308 308 308 309 308 307 302 299 304 302 296 289 289 300 300 290 290 287 284 286
242 226 287 280 313 306 300 297 305 310 309 312 315 313 310 308 308 309 312 311 311 311 312 313 314 314 312 310 308 303 307 312 306 297 294 304 300 300 300 299 297 296 295
237 268 285 292 293 295 290 294 303 307 303 306 311 310 308 309 310 312 314 316 317 316 317 315 314 314 311 306 302 303 307 302 304 294 297 298 298 300 298 299 299 297 298